Location: New York
(40.7127°N, 74.0060°W)
Time: 17:38:41
(UTC-04:00)

VELOX 1 - Pass Details

Date: 24 April 2024
Orbit: 605 x 617 km, 98.3° (Epoch: 27 May)

Event Time Altitude Azimuth Distance (km) Brightness Sun altitude
Rises 21:31:07 0° 5° (N) 2,902 ? -18.5°
Reaches altitude 10° 21:33:24 10° 358° (N) 1,992 ? -18.8°
Maximum altitude 21:37:26 39° 289° (WNW) 931 ? -19.4°
Drops below altitude 10° 21:41:26 10° 221° (SW) 1,977 ? -20.0°
Sets 21:43:42 0° 213° (SSW) 2,876 ? -20.3°
